STARLINK-32556

Last updated on Thu Nov 21 2024 00:02:05 GMT+0000 (Coordinated Universal Time)

1 61858U 24202P 24325.58335648 -.01392579 00000+0 -96538-2 0 9996 2 61858 43.0034 50.5940 0001585 289.0887 127.0567 15.76298118 3232
UTC large
Height (km)
Speed (km/s)
/
Latitude / Longitude
Inclination (degrees)
Orbital Period (minutes)
Azimuth
Elevation
Range (km)
Doppler Factor

Next 0 passes for location: London (51.5072 / 0.1276)

Sorry there are no passes over London.